FW8499 Weather Reports


time (UTC)temp
C
wind
direction
speed
KPH
gust
KPH
rain 1hr
cm
rain 24hr
cm
rain mn
cm
humidity
%
barometer
mb
20260506201904 8 26 1.6 11.3 0.00 0.00 0.00 80 1015.6
20260506201404 8 35 3.2 11.3 0.00 0.00 0.00 80 1015.6
20260506200905 8 58 0.0 11.3 0.00 0.00 0.00 80 1015.6
20260506195904 8 3 3.2 11.3 0.00 0.00 0.00 79 1015.5
20260506194905 8 35 4.8 19.3 0.00 0.00 0.00 79 1015.4
20260506194405 8 23 4.8 16.1 0.00 0.00 0.00 78 1015.4
20260506193904 8 28 4.8 11.3 0.00 0.00 0.00 79 1015.4
20260506193404 8 43 3.2 9.7 0.00 0.00 0.00 79 1015.4
20260506192904 8 36 4.8 9.7 0.00 0.00 0.00 78 1015.3
20260506191904 8 45 4.8 9.7 0.00 0.00 0.00 78 1015.3
20260506191404 8 34 3.2 12.9 0.00 0.00 0.00 78 1015.3
20260506190905 9 59 3.2 19.3 0.00 0.00 0.00 78 1015.4
20260506185904 9 37 6.4 16.1 0.00 0.00 0.00 77 1015.4
20260506185404 9 22 4.8 16.1 0.00 0.00 0.00 77 1015.3
20260506184904 9 36 3.2 16.1 0.00 0.00 0.00 76 1015.3
20260506184405 9 28 6.4 16.1 0.00 0.00 0.00 76 1015.2
20260506183904 10 6 4.8 12.9 0.00 0.00 0.00 76 1015.2
20260506183404 10 40 4.8 12.9 0.00 0.00 0.00 76 1015.1
20260506182904 10 16 3.2 14.5 0.00 0.00 0.00 76 1015.1
20260506182405 10 5 4.8 14.5 0.00 0.00 0.00 76 1015.1
20260506181905 10 27 4.8 14.5 0.00 0.00 0.00 76 1015.0
20260506181404 10 62 4.8 14.5 0.00 0.00 0.00 75 1014.9
20260506180905 10 23 4.8 14.5 0.00 0.00 0.00 74 1014.9
20260506180404 10 18 4.8 16.1 0.00 0.00 0.00 74 1014.8
20260506175905 10 25 4.8 16.1 0.00 0.00 0.00 74 1014.8
20260506175404 10 29 8.0 16.1 0.00 0.00 0.00 73 1014.7
20260506174905 10 44 4.8 16.1 0.00 0.00 0.00 73 1014.7
20260506174405 11 42 4.8 16.1 0.00 0.00 0.00 73 1014.7
20260506173904 11 26 8.0 19.3 0.00 0.00 0.00 73 1014.7
20260506173404 11 35 4.8 19.3 0.00 0.00 0.00 72 1014.7
20260506172905 11 30 4.8 16.1 0.00 0.00 0.00 73 1014.7
20260506172404 11 18 4.8 16.1 0.00 0.00 0.00 72 1014.6
20260506171905 11 28 6.4 19.3 0.00 0.00 0.00 71 1014.6
20260506171406 11 44 6.4 20.9 0.00 0.00 0.00 70 1014.6
20260506170904 11 39 6.4 20.9 0.00 0.00 0.00 70 1014.6
20260506170405 11 22 4.8 16.1 0.00 0.00 0.00 69 1014.7
20260506165904 12 26 8.0 16.1 0.00 0.00 0.00 69 1014.6
20260506165404 12 19 6.4 19.3 0.00 0.00 0.00 69 1014.6
20260506164904 12 23 8.0 19.3 0.00 0.00 0.00 68 1014.5
20260506164405 12 40 8.0 19.3 0.00 0.00 0.00 68 1014.5
20260506163904 12 14 3.2 19.3 0.00 0.00 0.00 67 1014.4
20260506163404 12 59 4.8 16.1 0.00 0.00 0.00 66 1014.4
20260506162905 12 54 4.8 16.1 0.00 0.00 0.00 66 1014.5
20260506161904 12 76 4.8 14.5 0.00 0.00 0.00 65 1014.4
20260506161404 12 75 6.4 19.3 0.00 0.00 0.00 65 1014.4
20260506160904 12 60 4.8 19.3 0.00 0.00 0.00 66 1014.4
20260506160404 13 16 4.8 14.5 0.00 0.00 0.00 65 1014.4
20260506155904 13 27 4.8 14.5 0.00 0.00 0.00 65 1014.4
20260506155405 13 28 4.8 16.1 0.00 0.00 0.00 65 1014.4
20260506154904 13 21 6.4 16.1 0.00 0.00 0.00 64 1014.4
20260506154404 13 38 4.8 14.5 0.00 0.00 0.00 63 1014.4
20260506153904 13 56 4.8 14.5 0.00 0.00 0.00 63 1014.4
20260506153404 13 17 4.8 14.5 0.00 0.00 0.00 63 1014.4
20260506152905 13 48 6.4 14.5 0.00 0.00 0.00 61 1014.4
20260506152404 13 36 4.8 14.5 0.00 0.00 0.00 61 1014.3
20260506151904 13 57 4.8 12.9 0.00 0.00 0.00 61 1014.3
20260506151404 13 29 3.2 12.9 0.00 0.00 0.00 62 1014.3
20260506150404 13 43 4.8 16.1 0.00 0.00 0.00 61 1014.4
20260506145405 13 17 6.4 19.3 0.00 0.00 0.00 60 1014.3
20260506144904 13 28 3.2 19.3 0.00 0.00 0.00 59 1014.3
20260506144404 13 6 4.8 19.3 0.00 0.00 0.00 57 1014.3
20260506143405 14 25 4.8 19.3 0.00 0.00 0.00 56 1014.3
20260506142905 15 78 4.8 19.3 0.00 0.00 0.00 55 1014.2
20260506141905 15 355 4.8 16.1 0.00 0.00 0.00 54 1014.2
20260506140904 15 9 8.0 19.3 0.00 0.00 0.00 52 1014.3
20260506140405 15 61 4.8 19.3 0.00 0.00 0.00 51 1014.3
20260506135904 15 355 4.8 14.5 0.00 0.00 0.00 52 1014.3
20260506134905 15 16 6.4 19.3 0.00 0.00 0.00 52 1014.3
20260506133904 16 12 8.0 20.9 0.00 0.00 0.00 53 1014.3
20260506132904 16 47 4.8 16.1 0.00 0.00 0.00 53 1014.3
20260506132404 16 73 6.4 12.9 0.00 0.00 0.00 51 1014.2
20260506131905 15 35 3.2 12.9 0.00 0.00 0.00 52 1014.3
20260506130404 16 17 9.7 20.9 0.00 0.00 0.00 49 1014.3
20260506124904 15 34 4.8 19.3 0.00 0.00 0.00 54 1014.3
20260506123904 15 34 4.8 19.3 0.00 0.00 0.00 57 1014.3
20260506123404 15 19 8.0 19.3 0.00 0.00 0.00 56 1014.2
20260506122906 15 35 8.0 19.3 0.00 0.00 0.00 57 1014.3
20260506122404 15 17 4.8 19.3 0.00 0.00 0.00 58 1014.3
20260506121904 15 5 4.8 12.9 0.00 0.00 0.00 58 1014.3
20260506120904 14 41 3.2 16.1 0.00 0.00 0.00 58 1014.3
20260506120404 14 8 4.8 14.5 0.00 0.00 0.00 59 1014.4
20260506115904 13 4 4.8 14.5 0.00 0.00 0.00 60 1014.3
20260506115405 13 40 3.2 19.3 0.00 0.00 0.00 61 1014.4
20260506114405 13 37 3.2 12.9 0.00 0.00 0.00 63 1014.3
20260506113404 13 4 6.4 14.5 0.00 0.00 0.00 62 1014.4
20260506112905 13 5 8.0 19.3 0.00 0.00 0.00 63 1014.5
20260506112404 12 2 4.8 19.3 0.00 0.00 0.00 62 1014.5
20260506111905 12 51 4.8 19.3 0.00 0.00 0.00 62 1014.5
20260506111404 12 42 3.2 14.5 0.00 0.00 0.00 63 1014.6
20260506110904 12 23 4.8 12.9 0.00 0.00 0.00 62 1014.6
20260506110404 12 16 4.8 12.9 0.00 0.00 0.00 63 1014.6
20260506105904 12 22 4.8 12.9 0.00 0.00 0.00 64 1014.6
20260506105404 12 8 3.2 14.5 0.00 0.00 0.00 62 1014.6
20260506104904 13 15 6.4 14.5 0.00 0.00 0.00 62 1014.6
20260506104405 13 36 4.8 14.5 0.00 0.00 0.00 63 1014.7
20260506103904 13 30 3.2 19.3 0.00 0.00 0.00 63 1014.6
20260506103404 12 2 6.4 19.3 0.00 0.00 0.00 63 1014.6
20260506102904 12 45 6.4 16.1 0.00 0.00 0.00 64 1014.6
20260506102404 12 20 8.0 16.1 0.00 0.00 0.00 65 1014.5
20260506101904 12 355 4.8 19.3 0.00 0.00 0.00 65 1014.5
20260506100905 12 16 8.0 25.7 0.00 0.00 0.00 66 1014.5
20260506100404 12 15 6.4 25.7 0.00 0.00 0.00 67 1014.4
20260506095905 12 11 4.8 16.1 0.00 0.00 0.00 67 1014.4
20260506095405 11 34 8.0 16.1 0.00 0.00 0.00 69 1014.4
20260506094904 11 50 4.8 16.1 0.00 0.00 0.00 69 1014.4
20260506094404 11 26 4.8 16.1 0.00 0.00 0.00 72 1014.4
20260506093904 11 29 4.8 16.1 0.00 0.00 0.00 70 1014.4
20260506093404 11 17 4.8 19.3 0.00 0.00 0.00 70 1014.4
20260506091904 11 14 4.8 19.3 0.00 0.00 0.00 70 1014.5
20260506091404 11 13 8.0 19.3 0.00 0.00 0.00 71 1014.5
20260506090904 11 44 6.4 19.3 0.00 0.00 0.00 71 1014.5
20260506090404 10 13 8.0 19.3 0.00 0.00 0.00 70 1014.6
20260506085905 10 46 8.0 19.3 0.00 0.00 0.00 71 1014.6
20260506085405 10 16 8.0 22.5 0.00 0.00 0.00 72 1014.6
20260506084904 10 23 4.8 22.5 0.00 0.00 0.00 71 1014.6
20260506084404 10 10 9.7 22.5 0.00 0.00 0.00 71 1014.7
20260506083904 10 13 9.7 19.3 0.00 0.00 0.00 71 1014.5
20260506083404 10 17 8.0 19.3 0.00 0.00 0.00 71 1014.6
20260506082905 10 15 4.8 19.3 0.00 0.00 0.00 72 1014.7
20260506082405 10 11 4.8 19.3 0.00 0.00 0.00 72 1014.6
20260506081904 10 45 8.0 19.3 0.00 0.00 0.00 72 1014.6
20260506080904 10 355 4.8 19.3 0.00 0.00 0.00 73 1014.5
20260506080405 10 37 8.0 19.3 0.00 0.00 0.00 73 1014.6
20260506073405 8 352 6.4 16.1 0.00 0.00 0.00 77 1014.5
20260506072906 8 12 4.8 16.1 0.00 0.00 0.00 78 1014.5
20260506072405 8 336 1.6 14.5 0.00 0.00 0.00 77 1014.5
20260506071904 8 14 3.2 11.3 0.00 0.00 0.00 78 1014.5
20260506071406 8 6 3.2 12.9 0.00 0.00 0.00 78 1014.5
20260506070905 8 13 4.8 12.9 0.00 0.00 0.00 77 1014.5
20260506070405 8 18 4.8 12.9 0.00 0.00 0.00 78 1014.6
20260506062404 7 14 3.2 12.9 0.00 0.00 0.00 79 1014.3
20260506061905 7 13 4.8 16.1 0.00 0.00 0.00 79 1014.2
20260506061405 7 12 6.4 20.9 0.00 0.00 0.00 79 1014.2
20260506060904 7 5 8.0 20.9 0.00 0.00 0.00 79 1014.1
20260506060404 7 7 9.7 19.3 0.00 0.00 0.00 79 1014.1
20260506051404 6 353 3.2 16.1 0.00 0.00 0.00 83 1013.9
20260506050904 6 6 6.4 16.1 0.00 0.00 0.00 82 1013.9
20260506050405 6 1 4.8 11.3 0.00 0.00 0.00 82 1013.9
20260506044905 6 10 1.6 14.5 0.00 0.00 0.00 82 1013.9
20260506044404 6 9 4.8 14.5 0.00 0.00 0.00 82 1013.8
20260506043904 6 10 3.2 11.3 0.00 0.00 0.00 82 1013.8
20260506043405 6 356 1.6 11.3 0.00 0.00 0.00 82 1013.9
20260506042905 6 20 3.2 11.3 0.00 0.00 0.00 82 1013.9
20260506042404 6 12 1.6 9.7 0.00 0.00 0.00 82 1013.9
20260506041904 6 12 3.2 9.7 0.00 0.00 0.00 82 1013.9
20260506041404 6 3 3.2 11.3 0.00 0.00 0.00 82 1014.0
20260506040905 6 22 4.8 11.3 0.00 0.00 0.00 82 1014.0
20260506040405 6 11 4.8 11.3 0.00 0.00 0.00 82 1013.9
20260506035904 6 23 3.2 11.3 0.00 0.00 0.00 82 1014.0
20260506035404 6 14 3.2 11.3 0.00 0.00 0.00 82 1014.0
20260506034904 7 13 3.2 9.7 0.00 0.00 0.00 82 1014.0
20260506034404 7 4 4.8 14.5 0.00 0.00 0.00 82 1014.0
20260506033404 7 2 1.6 9.7 0.00 0.00 0.00 82 1014.1
20260506032905 7 7 3.2 9.7 0.00 0.00 0.00 82 1014.1
20260506031404 7 16 4.8 11.3 0.00 0.00 0.00 81 1014.2
20260506030905 7 12 3.2 11.3 0.00 0.00 0.00 81 1014.2
20260506030404 7 17 3.2 11.3 0.00 0.00 0.00 81 1014.2
20260506025904 7 10 3.2 11.3 0.00 0.00 0.00 81 1014.1
20260506025405 7 5 3.2 9.7 0.00 0.00 0.00 81 1014.1
20260506024905 7 42 3.2 9.7 0.00 0.00 0.00 81 1014.2
20260506024404 7 10 1.6 12.9 0.00 0.00 0.00 80 1014.2
20260506023904 7 17 4.8 12.9 0.00 0.00 0.00 80 1014.2
20260506023404 7 60 3.2 8.0 0.00 0.00 0.00 80 1014.3
20260506022904 7 8 3.2 8.0 0.00 0.00 0.00 80 1014.4
20260506022404 7 4 3.2 8.0 0.00 0.00 0.00 80 1014.4
20260506021904 7 1 3.2 9.7 0.00 0.00 0.00 79 1014.4
20260506021404 7 26 4.8 9.7 0.00 0.00 0.00 79 1014.4
20260506020904 7 341 3.2 9.7 0.00 0.00 0.00 79 1014.5
20260506020404 7 22 3.2 9.7 0.00 0.00 0.00 79 1014.4
20260506015904 7 354 0.0 8.0 0.00 0.00 0.00 79 1014.5
20260506015404 7 59 1.6 9.7 0.00 0.00 0.00 78 1014.5
20260506014904 7 32 1.6 16.1 0.00 0.00 0.00 78 1014.5
20260506014404 7 17 3.2 16.1 0.00 0.00 0.00 78 1014.5
20260506013404 7 57 1.6 12.9 0.00 0.00 0.00 78 1014.5
20260506012904 7 43 4.8 12.9 0.00 0.00 0.00 78 1014.6
20260506012404 7 46 1.6 12.9 0.00 0.00 0.00 78 1014.6
20260506011905 7 25 4.8 12.9 0.00 0.00 0.00 78 1014.6
20260506011404 8 0 4.8 12.9 0.00 0.00 0.00 77 1014.6
20260506010406 8 32 3.2 9.7 0.00 0.00 0.00 77 1014.6
20260506005904 8 10 1.6 8.0 0.00 0.00 0.00 77 1014.5
20260506005404 8 21 3.2 11.3 0.00 0.00 0.00 77 1014.5
20260506004904 8 51 3.2 11.3 0.00 0.00 0.00 77 1014.6
20260506003904 8 31 1.6 4.8 0.00 0.00 0.00 77 1014.6
20260506002904 8 30 3.2 12.9 0.00 0.00 0.00 77 1014.6
20260506002405 8 37 4.8 12.9 0.00 0.00 0.00 76 1014.6
20260506001905 8 48 3.2 12.9 0.00 0.00 0.00 77 1014.7
20260506001404 8 13 3.2 11.3 0.00 0.00 0.00 77 1014.7
20260506000904 8 22 3.2 11.3 0.00 0.00 0.00 77 1014.7
20260506000404 8 357 3.2 11.3 0.00 0.00 0.00 76 1014.7
20260505235904 8 38 3.2 11.3 0.00 0.00 0.00 76 1014.7
20260505235405 8 26 3.2 11.3 0.00 0.00 0.00 76 1014.8
20260505234904 8 38 1.6 11.3 0.00 0.00 0.00 75 1014.7
20260505234404 8 52 3.2 8.0 0.00 0.00 0.00 75 1014.8
20260505233405 8 66 3.2 9.7 0.00 0.00 0.00 74 1014.8
20260505232905 8 46 4.8 12.9 0.00 0.00 0.00 74 1014.8
20260505232404 8 42 1.6 14.5 0.00 0.00 0.00 74 1014.8
20260505231904 8 42 4.8 14.5 0.00 0.00 0.00 73 1014.8
20260505231404 8 45 3.2 14.5 0.00 0.00 0.00 73 1014.8
20260505230904 8 31 4.8 16.1 0.00 0.00 0.00 73 1014.8
20260505230404 9 29 4.8 16.1 0.00 0.00 0.00 73 1014.9
20260505225403 9 40 6.4 22.5 0.00 0.00 0.00 75 1014.9
20260505224404 9 21 8.0 16.1 0.00 0.00 0.00 78 1014.9
20260505223905 9 37 3.2 11.3 0.00 0.00 0.00 78 1014.9
20260505223404 9 12 3.2 11.3 0.00 0.00 0.00 77 1014.9
20260505222904 9 32 4.8 11.3 0.00 0.00 0.00 77 1014.8
20260505222404 9 22 1.6 9.7 0.00 0.00 0.00 77 1014.7
20260505221904 9 35 4.8 11.3 0.00 0.00 0.00 76 1014.7
20260505221404 9 39 1.6 16.1 0.00 0.00 0.00 76 1014.8
20260505220904 9 22 8.0 16.1 0.00 0.00 0.00 75 1014.7
20260505215404 10 29 4.8 19.3 0.00 0.00 0.00 74 1014.7
20260505214906 10 59 3.2 14.5 0.00 0.00 0.00 73 1014.8
20260505214405 10 46 4.8 14.5 0.00 0.00 0.00 73 1014.8
20260505213904 10 62 6.4 14.5 0.00 0.00 0.00 73 1014.8
20260505213404 10 30 4.8 11.3 0.00 0.00 0.00 72 1014.8
20260505212404 10 40 4.8 11.3 0.00 0.00 0.00 72 1014.8
20260505211904 10 42 3.2 19.3 0.00 0.00 0.00 71 1014.8
20260505211405 10 53 4.8 19.3 0.00 0.00 0.00 70 1014.9
20260505210404 10 51 8.0 19.3 0.00 0.00 0.00 71 1014.9
20260505205904 10 50 8.0 19.3 0.00 0.00 0.00 73 1014.8
20260505205404 10 77 6.4 19.3 0.00 0.00 0.00 74 1014.7
20260505204904 10 37 4.8 19.3 0.00 0.00 0.00 74 1014.6
20260505204404 11 41 8.0 20.9 0.00 0.00 0.00 73 1014.6
20260505203904 11 32 8.0 20.9 0.00 0.00 0.00 74 1014.5
20260505202905 11 26 4.8 14.5 0.00 0.00 0.00 74 1014.4
20260505202404 11 57 8.0 14.5 0.00 0.00 0.00 74 1014.4